Regional Weather Roundup
Issued by NWS

Home | Current Version | Previous Version | Text Only | Print | Product List | Glossary On
Versions: 1 2 3 4 5 6 7 8 9 10 11 12 13 14 15 16 17 18 19 20 21 22 23 24 25 26 27 28 29 30 31 32 33 34 35 36 37 38 39 40 41 42 43 44 45 46 47 48 49 50
000
ASUS43 KMKX 282211
RWRWI

WISCONSIN REGIONAL WEATHER ROUNDUP
NATIONAL WEATHER SERVICE MILWAUKEE/SULLIVAN WI
500 PM CDT FRI AUG 28 2015

NOTE: "FAIR" INDICATES FEW OR NO CLOUDS BELOW 12,000 FEET WITH NO
SIGNIFICANT WEATHER AND/OR OBSTRUCTIONS TO VISIBILITY.

WIZ001-002-006>008-014>016-023>028-282300-
NORTHWEST WISCONSIN

CITY           SKY/WX    TMP DP  RH WIND       PRES   REMARKS
SUPERIOR ARPT  MOSUNNY   79  65  60 SW15G22   29.91F HX  81
ASHLAND        MOSUNNY   79  64  60 SW12      29.95S HX  81
HAYWARD        SUNNY     76  62  62 S16       30.00S
SIREN          MOSUNNY   78  60  54 S10       29.99R
CUMBERLAND     MOSUNNY   72  61  68 S8        30.02S
RICE LAKE      PTSUNNY   73  62  66 S9        30.04S
CHETEK         PTSUNNY  N/A N/A N/A S5        30.03S
LADYSMITH      CLOUDY    70  62  77 S6        30.05S
EAU CLAIRE     PTSUNNY   69  61  75 S12       30.02R
MENOMONIE      MOSUNNY   70  61  72 S10       30.03R
NEW RICHMOND   PTSUNNY   74  61  64 S14       30.02S
OSCEOLA        MOSUNNY   74  62  65 S13       30.02F
$$

WIZ003>005-009-010-017-018-282300-
NORTH CENTRAL WISCONSIN

CITY           SKY/WX    TMP DP  RH WIND       PRES   REMARKS
MANITOWISH WTR CLOUDY    70  62  76 SW10      30.03R
ARBOR VITAE    CLOUDY    72  64  76 SW6       30.04R
WOODRUFF       CLOUDY    72  64  76 SW6       30.04R
RHINELANDER    CLOUDY    69  61  75 SW7       30.06S
EAGLE RIVER    CLOUDY    70  60  69 SW6       30.04R
LAND O LAKES   CLOUDY    72  61  68 SW8       30.03S
PHILLIPS       MOSUNNY   69  62  77 S8        30.04R
TOMAHAWK       CLOUDY    66  60  82 S3        30.06S
MEDFORD        LGT RAIN  63  62  97 CALM      30.05R
MERRILL        DRIZZLE   65  63  93 S6        30.06S
$$

WIZ029-030-035-036-043>047-282300-
CENTRAL WISCONSIN

CITY           SKY/WX    TMP DP  RH WIND       PRES   REMARKS
WAUSAU         LGT RAIN  65  62  90 SE7       30.04S
MOSINEE        LGT RAIN  63  63 100 VRB6      30.07F
MARSHFIELD     CLOUDY    66  61  84 S10       30.07R
STEVENS POINT  RAIN      61  60  95 CALM      30.06F
WAUPACA        RAIN      66  65  96 S5        30.09S
WAUTOMA        LGT RAIN  64  64 100 E6        30.07F FOG
WISC RAPIDS    LGT RAIN  64  61  90 S3        30.08S
CAMP DOUGLAS   RAIN      61  61 100 SE3       30.06R FOG
$$

WIZ011>013-019>022-031-037>040-048>050-282300-
NORTHEAST WISCONSIN

CITY           SKY/WX    TMP DP  RH WIND       PRES   REMARKS
ANTIGO         CLOUDY    65  62  89 SW9       30.07S
SHAWANO        DRIZZLE   67  63  86 SW6       30.07S
OCONTO         CLOUDY    67  63  87 SW8       30.05S
STURGEON BAY   CLOUDY    70  59  68 SW9G16    30.08S
GREEN BAY      CLOUDY    68  62  81 SW6       30.08S
MANITOWOC      LGT RAIN  64  61  90 MISG      30.09S
APPLETON       DRIZZLE   64  61  88 SW8       30.08
CLINTONVILLE   DRIZZLE   64  63  94 SW7       30.07S
OSHKOSH        LGT RAIN  67  62  84 CALM      30.09S
$$

WIZ032>034-041-042-053>061-282300-
SOUTHWEST WISCONSIN

CITY           SKY/WX    TMP DP  RH WIND       PRES   REMARKS
LA CROSSE      HVY RAIN  60  59  96 S15       30.04F FOG
SPARTA         HVY RAIN  60  59  95 CALM      30.07S
VIROQUA        CLOUDY    59  59 100 NE5       30.07S
BOSCOBEL       RAIN      64  61  90 VRB5      30.02F FOG
PRAIRIE DU CHI RAIN      62  60  94 NE5       30.00R
PLATTEVILLE    CLOUDY    64  63  97 E10       30.03F
$$

WIZ056-057-062-063-064-067-068-282300-
SOUTH CENTRAL WISCONSIN

CITY           SKY/WX    TMP DP  RH WIND       PRES   REMARKS
REEDSBURG      RAIN      62  61  97 CALM      30.06R
BARABOO/DELLS  RAIN      63  60  93 E5        30.06S
LONE ROCK      RAIN      64  62  93 E5        30.06R FOG
MINERAL POINT  NOT AVBL
MADISON        LGT RAIN  65  62  90 E6        30.07F FOG
MIDDLETON      CLOUDY    65  64  94 E6        30.07F
WATERTOWN      LGT RAIN  66  66 100 E3        30.08F
MONROE         CLOUDY    64  61  88 E5        30.06F
JANESVILLE     CLOUDY    68  64  88 E6        30.07F
$$

WIZ051-052-058>065-066-070>072-282300-
SOUTHEAST WISCONSIN

CITY           SKY/WX    TMP DP  RH WIND       PRES   REMARKS
MILWAUKEE      CLOUDY    70  62  76 S5        30.09S
WAUKESHA       SUNNY     68  61  77 CALM      30.11S
MILWAUKEE/TIMM CLOUDY    70  57  64 CALM      30.10S
RACINE         CLOUDY    69  59  70 S3        30.11S
BURLINGTON     DRIZZLE   67  60  79 E3        30.08F
KENOSHA        CLOUDY    71  61  70 SW3       30.10S
FOND DU LAC    LGT RAIN  68  63  84 CALM      30.09F
SHEBOYGAN      CLOUDY    69  62  78 SW5       30.09F
WEST BEND      CLOUDY    68  61  77 CALM      30.10R
JUNEAU         LGT RAIN  66  62  87 CALM      30.10S
$$

LSZ147-162-282300-
LAKE SUPERIOR

STATION/POSITION TIME  TEMP    WIND        PRES    WAVE
                       AIR SEA DIR/SP/G            HT/PER
                 (UTC) (F)     (DEG/KT/KT) (MB)    (FT/S)
W MID LAKE BUOY  2150   58 56  190/  6/ 10 1013.1F   0
DEVILS ISLAND    2200   71     240/  9/ 11 1012.5F
PORT WING        2100   80     220/  7/ 17 1013.5
SAXON HARBOR     2100   79     210/  4/ 12 1013.9F
$$

LMZ867-665-643>646-282300-
LAKE MICHIGAN

STATION/POSITION TIME  TEMP    WIND        PRES    WAVE
                       AIR SEA DIR/SP/G            HT/PER
                 (UTC) (F)     (DEG/KT/KT) (MB)    (FT/S)
CHAMBERS ISLAND  2100   69     190/  7/ 14 1016.9F
S GREEN BAY BUOY 2200   65 62  210/ 10/ 14 1019.0F
N MID LAKE BUOY  2150   64 64  200/ 17/ 19 1017.0F   3/ 4
NORTHPORT PIER   2100   66     150/  7/ 10 1016.9F
SISTER BAY       2119   69     200/ 14/ 16   N/A
ALGOMA LAKESHORE 2114          210/ 11/ 14   N/A
SHEBOYGAN LAKESH 2200   64     180/  6/  6 1019.3S
PORT WASHINGTON  2140   61        CALM     1019.6F
ATWATER BUOY     2200   56 49  180/  4/  4 1020.2S
MILWAUKEE LAKESH 2100   60     160/  3/  5   N/A
S MID LAKE BUOY  2150   68 69  160/  6/  6 1018.8F   1
KENOSHA   LAKESH 2200   65     190/  3/  4 1018.6S
$$

TC  - TEMPERATURE IN CELSIUS
VSB - VISIBILITY IN STATUTE MILES
WCI - WIND CHILL INDEX
HX  - HEAT INDEX




USA.gov is the U.S. government's official web portal to all federal, state and local government web resources and services.